This is the latest recevied weather packets stored in our database for station/object KC2TER. If no packets are shown the sender has not sent any weather packets the latest 10 day(s).
| Time | Temp. | Humidity | Pressure | Rain* | Wind** | Luminosity | Snow |
|---|---|---|---|---|---|---|---|
| 1777403144 | 15° C | 54% | 1020.3 hPa | 0 mm | - | 233 W/m² | - |
| 1777402840 | 15° C | 56% | 1020.6 hPa | 0 mm | - | 252 W/m² | - |
| 1777402537 | 14.44° C | 56% | 1020.9 hPa | 0 mm | - | 229 W/m² | - |
| 1777402234 | 14.44° C | 56% | 1021 hPa | 0 mm | - | 230 W/m² | - |
| 1777401929 | 14.44° C | 57% | 1020.9 hPa | 0 mm | - | 202 W/m² | - |
| 1777401628 | 14.44° C | 56% | 1020.9 hPa | 0 mm | - | 181 W/m² | - |
| 1777401325 | 14.44° C | 57% | 1020.8 hPa | 0 mm | - | 171 W/m² | - |
| 1777401021 | 14.44° C | 57% | 1020.7 hPa | 0 mm | - | 158 W/m² | - |
| 1777400716 | 15° C | 57% | 1020.7 hPa | 0 mm | - | 150 W/m² | - |
| 1777400415 | 14.44° C | 56% | 1020.7 hPa | 0 mm | - | 147 W/m² | - |
| 1777400115 | 15° C | 56% | 1020.6 hPa | 0 mm | - | 150 W/m² | - |
| 1777399812 | 15° C | 55% | 1020.7 hPa | 0 mm | - | 154 W/m² | - |
| 1777399509 | 15° C | 55% | 1020.9 hPa | 0 mm | - | 159 W/m² | - |
| 1777399206 | 15° C | 54% | 1020.8 hPa | 0 mm | - | 173 W/m² | - |
| 1777398903 | 15° C | 55% | 1020.7 hPa | 0 mm | - | 191 W/m² | - |
| 1777398600 | 14.44° C | 55% | 1020.8 hPa | 0 mm | - | 196 W/m² | - |
| 1777398296 | 15° C | 55% | 1020.5 hPa | 0 mm | - | 205 W/m² | - |
| 1777397994 | 15.56° C | 53% | 1020.9 hPa | 0 mm | - | 207 W/m² | - |
| 1777397690 | 15.56° C | 52% | 1021 hPa | 0 mm | - | 231 W/m² | - |
| 1777397386 | 16.11° C | 51% | 1021 hPa | 0 mm | - | 229 W/m² | - |
| 1777397083 | 15.56° C | 52% | 1021.3 hPa | 0 mm | - | 217 W/m² | - |
| 1777396779 | 15.56° C | 52% | 1021.2 hPa | 0 mm | - | 206 W/m² | - |
| 1777396476 | 15.56° C | 51% | 1021.1 hPa | 0 mm | - | 208 W/m² | - |
| 1777396173 | 15.56° C | 51% | 1021.2 hPa | 0 mm | - | 224 W/m² | - |
| 1777395869 | 16.11° C | 50% | 1021.1 hPa | 0 mm | - | 240 W/m² | - |
* Rain latest hour (hover to see other rain measurements)
** Current wind speed in m/s (hover to see current wind gust speed)